| time (UTC) | temp F | wind direction | speed MPH | gust MPH | rain 1hr in | rain 24hr in | rain mn in | humidity % | barometer mb |
| 20260504081553 | 42 | 196 | 1.0 | 3.0 | 0.00 | 0.00 | 0.00 | 65 | 1011.9 |
| 20260504050123 | 43 | 63 | 2.0 | 4.0 | 0.00 | 0.00 | 0.00 | 64 | 1011.2 |
| 20260504044550 | 43 | 63 | 0.0 | 3.0 | 0.00 | 0.00 | 0.00 | 64 | 1011.3 |
| 20260504043051 | 43 | 63 | 2.0 | 3.0 | 0.00 | 0.00 | 0.00 | 63 | 1011.2 |
| 20260504041549 | 43 | 63 | 1.0 | 3.0 | 0.00 | 0.00 | 0.00 | 60 | 1011.3 |
| 20260504040055 | 43 | 63 | 1.0 | 3.0 | 0.00 | 0.00 | 0.00 | 63 | 1011.2 |
| 20260504034559 | 43 | 63 | 1.0 | 3.0 | 0.00 | 0.00 | 0.00 | 63 | 1011.2 |
| 20260504033059 | 43 | 63 | 1.0 | 3.0 | 0.00 | 0.00 | 0.00 | 62 | 1011.1 |
| 20260504031606 | 43 | 63 | 1.0 | 4.0 | 0.00 | 0.00 | 0.00 | 63 | 1011.1 |
| 20260504030114 | 43 | 268 | 1.0 | 3.0 | 0.00 | 0.00 | 0.00 | 61 | 1011.0 |
| 20260504024550 | 44 | 268 | 1.0 | 3.0 | 0.00 | 0.00 | 0.00 | 60 | 1011.0 |
| 20260504023050 | 44 | 268 | 1.0 | 3.0 | 0.00 | 0.00 | 0.00 | 57 | 1011.1 |
| 20260504021553 | 44 | 268 | 2.0 | 3.0 | 0.00 | 0.00 | 0.00 | 59 | 1011.0 |
| 20260504020048 | 45 | 268 | 2.0 | 3.0 | 0.00 | 0.00 | 0.00 | 56 | 1010.9 |
| 20260504014551 | 45 | 0 | 1.0 | 2.0 | 0.00 | 0.00 | 0.00 | 53 | 1011.0 |
| 20260504013052 | 47 | 0 | 0.0 | 1.0 | 0.00 | 0.00 | 0.00 | 51 | 1011.0 |
| 20260504011551 | 49 | 0 | 0.0 | 0.0 | 0.00 | 0.00 | 0.00 | 47 | 1011.0 |
| 20260504010052 | 50 | 0 | 0.0 | 2.0 | 0.00 | 0.00 | 0.00 | 46 | 1010.7 |
| 20260504004552 | 51 | 265 | 1.0 | 5.0 | 0.00 | 0.00 | 0.00 | 41 | 1010.5 |
| 20260504003048 | 51 | 281 | 1.0 | 4.0 | 0.00 | 0.00 | 0.00 | 41 | 1010.3 |
| 20260504001552 | 52 | 292 | 1.0 | 6.0 | 0.00 | 0.00 | 0.00 | 39 | 1010.2 |
| 20260504000131 | 52 | 267 | 3.0 | 7.0 | 0.00 | 0.00 | 0.00 | 37 | 1009.9 |
| 20260503234556 | 53 | 294 | 2.0 | 7.0 | 0.00 | 0.00 | 0.00 | 35 | 1009.9 |
| 20260503233052 | 54 | 315 | 5.0 | 12.0 | 0.00 | 0.00 | 0.00 | 33 | 1009.8 |
| 20260503231552 | 54 | 300 | 4.0 | 9.0 | 0.00 | 0.00 | 0.00 | 30 | 1009.5 |
| 20260503230056 | 54 | 302 | 4.0 | 9.0 | 0.00 | 0.00 | 0.00 | 31 | 1009.4 |
| 20260503224554 | 54 | 284 | 4.0 | 8.0 | 0.00 | 0.00 | 0.00 | 29 | 1009.4 |
| 20260503223056 | 55 | 332 | 5.0 | 12.0 | 0.00 | 0.00 | 0.00 | 31 | 1009.3 |
| 20260503221552 | 57 | 315 | 8.0 | 14.0 | 0.00 | 0.00 | 0.00 | 29 | 1009.2 |
| 20260503220054 | 57 | 274 | 7.0 | 12.0 | 0.00 | 0.00 | 0.00 | 28 | 1009.3 |
| 20260503214551 | 56 | 298 | 6.0 | 13.0 | 0.00 | 0.00 | 0.00 | 29 | 1009.2 |
| 20260503213052 | 56 | 261 | 9.0 | 16.0 | 0.00 | 0.00 | 0.00 | 29 | 1009.0 |
| 20260503211552 | 56 | 274 | 4.0 | 15.0 | 0.00 | 0.00 | 0.00 | 31 | 1009.0 |
| 20260503210051 | 56 | 303 | 7.0 | 15.0 | 0.00 | 0.00 | 0.00 | 32 | 1009.0 |
| 20260503204554 | 55 | 328 | 6.0 | 16.0 | 0.00 | 0.00 | 0.00 | 32 | 1009.0 |
| 20260503203101 | 55 | 304 | 8.0 | 16.0 | 0.00 | 0.00 | 0.00 | 31 | 1009.1 |
| 20260503201556 | 55 | 332 | 6.0 | 16.0 | 0.00 | 0.00 | 0.00 | 35 | 1009.2 |
| 20260503200053 | 53 | 35 | 5.0 | 14.0 | 0.00 | 0.00 | 0.00 | 36 | 1009.3 |
| 20260503194554 | 52 | 310 | 7.0 | 16.0 | 0.00 | 0.00 | 0.00 | 37 | 1009.6 |
| 20260503193053 | 53 | 309 | 8.0 | 17.0 | 0.00 | 0.00 | 0.00 | 38 | 1009.7 |
| 20260503191555 | 51 | 302 | 5.0 | 13.0 | 0.00 | 0.00 | 0.00 | 38 | 1009.9 |
| 20260503190050 | 51 | 294 | 9.0 | 17.0 | 0.00 | 0.00 | 0.00 | 37 | 1009.9 |
| 20260503184611 | 51 | 338 | 9.0 | 27.0 | 0.00 | 0.00 | 0.00 | 38 | 1010.1 |
| 20260503183057 | 50 | 304 | 10.0 | 17.0 | 0.00 | 0.00 | 0.00 | 38 | 1010.3 |
| 20260503181554 | 50 | 299 | 11.0 | 20.0 | 0.00 | 0.00 | 0.00 | 42 | 1010.3 |
| 20260503180057 | 49 | 325 | 10.0 | 21.0 | 0.00 | 0.00 | 0.00 | 40 | 1010.2 |
| 20260503174551 | 50 | 290 | 7.0 | 25.0 | 0.00 | 0.00 | 0.00 | 39 | 1010.2 |
| 20260503173052 | 50 | 298 | 10.0 | 21.0 | 0.00 | 0.00 | 0.00 | 40 | 1010.3 |
| 20260503171610 | 50 | 318 | 12.0 | 27.0 | 0.00 | 0.00 | 0.00 | 42 | 1010.4 |
| 20260503170106 | 50 | 350 | 9.0 | 22.0 | 0.00 | 0.00 | 0.00 | 40 | 1010.2 |